Orbital Elements at Epoch 2459000.5 (2020-May-31.0) TDB
Reference: JPL 36 (heliocentric ecliptic J2000)
Element | Value | Uncertainty (1-sigma) | Units |
e | .01911750039165531 | 4.4772e-08 | |
a | 3.178494401182854 | 2.0526e-08 | au |
q | 3.117729533223367 | 1.4343e-07 | au |
i | 6.631909424098247 | 4.1959e-06 | deg |
node | 268.1809861268464 | 4.2374e-05 | deg |
peri | 250.7545838458765 | 0.00012013 | deg |
M | 321.7772467774555 | 0.00011241 | deg |
tp | 2459220.260719734030 (2021-Jan-05.76071973) | 0.00064644 | TDB |
period | 2069.810582289193 5.67 | 2.0049e-05 5.489e-08 | d yr |
n | .173928959046022 | 1.6848e-09 | deg/d |
Q | 3.239259269142341 | 2.0918e-08 | au |
|
| | Orbit Determination Parameters
Additional Information
|